| time (UTC) | temp F | wind direction | speed knots | gust knots | rain 1hr in | rain 24hr in | rain mn in | humidity % | barometer mb |
| 20260502190049 | 63 | 119 | 0.0 | 2.6 | 0.00 | 0.00 | 0.00 | 41 | 1013.6 |
| 20260502184554 | 64 | 127 | 0.0 | 5.2 | 0.00 | 0.00 | 0.00 | 37 | 1013.5 |
| 20260502183046 | 65 | 203 | 0.9 | 3.5 | 0.00 | 0.00 | 0.00 | 35 | 1013.7 |
| 20260502181546 | 65 | 243 | 0.0 | 4.3 | 0.00 | 0.00 | 0.00 | 38 | 1013.7 |
| 20260502163035 | 63 | 181 | 0.0 | 4.3 | 0.00 | 0.00 | 0.00 | 40 | 1014.9 |
| 20260502161536 | 63 | 131 | 0.0 | 4.3 | 0.00 | 0.00 | 0.00 | 38 | 1015.0 |
| 20260502151526 | 61 | 178 | 0.0 | 4.3 | 0.00 | 0.00 | 0.00 | 45 | 1014.9 |
| 20260502123004 | 50 | 142 | 0.0 | 0.0 | 0.00 | 0.00 | 0.00 | 69 | 1014.8 |
| 20260502121502 | 49 | 131 | 0.0 | 0.0 | 0.00 | 0.00 | 0.00 | 70 | 1014.7 |
| 20260502120105 | 48 | 86 | 0.0 | 4.3 | 0.00 | 0.00 | 0.00 | 73 | 1014.6 |
| 20260502114602 | 46 | 117 | 0.0 | 3.5 | 0.00 | 0.00 | 0.00 | 77 | 1014.4 |
| 20260502113118 | 46 | 134 | 0.0 | 0.0 | 0.00 | 0.00 | 0.00 | 79 | 1014.3 |
| 20260502111601 | 46 | 135 | 0.0 | 0.0 | 0.00 | 0.00 | 0.00 | 79 | 1014.0 |
| 20260502110055 | 46 | 135 | 0.0 | 0.0 | 0.00 | 0.00 | 0.00 | 80 | 1013.9 |
| 20260502104607 | 46 | 135 | 0.0 | 0.0 | 0.00 | 0.00 | 0.00 | 80 | 1013.9 |
| 20260502103054 | 46 | 135 | 0.0 | 0.0 | 0.00 | 0.00 | 0.00 | 80 | 1013.9 |
| 20260502101607 | 46 | 135 | 0.0 | 0.0 | 0.00 | 0.00 | 0.00 | 79 | 1013.7 |
| 20260502071534 | 49 | 113 | 0.0 | 0.0 | 0.00 | 0.00 | 0.00 | 71 | 1014.4 |
| 20260502070052 | 49 | 120 | 0.0 | 0.0 | 0.00 | 0.00 | 0.00 | 69 | 1014.5 |
| 20260502064529 | 50 | 264 | 0.0 | 0.0 | 0.00 | 0.00 | 0.00 | 67 | 1014.2 |
| 20260502063032 | 50 | 205 | 0.0 | 2.6 | 0.00 | 0.00 | 0.00 | 66 | 1014.2 |
| 20260502061524 | 50 | 186 | 0.0 | 0.0 | 0.00 | 0.00 | 0.00 | 64 | 1014.2 |
| 20260502060034 | 51 | 163 | 0.0 | 0.0 | 0.00 | 0.00 | 0.00 | 63 | 1014.2 |
| 20260502054532 | 51 | 246 | 0.0 | 0.0 | 0.00 | 0.00 | 0.00 | 61 | 1014.2 |
| 20260502053015 | 52 | 302 | 0.0 | 6.1 | 0.00 | 0.00 | 0.00 | 59 | 1014.0 |
| 20260502051511 | 53 | 233 | 0.0 | 5.2 | 0.00 | 0.00 | 0.00 | 58 | 1013.7 |
| 20260502050016 | 53 | 29 | 0.0 | 7.0 | 0.00 | 0.00 | 0.00 | 58 | 1013.6 |
| 20260502044507 | 53 | 113 | 0.0 | 6.1 | 0.00 | 0.00 | 0.00 | 57 | 1013.5 |
| 20260502043005 | 54 | 128 | 0.9 | 7.8 | 0.00 | 0.00 | 0.00 | 56 | 1013.4 |
| 20260502041624 | 54 | 110 | 0.0 | 7.0 | 0.00 | 0.00 | 0.00 | 56 | 1013.7 |
| 20260502040100 | 55 | 148 | 0.9 | 7.0 | 0.00 | 0.00 | 0.00 | 54 | 1013.5 |
| 20260502034557 | 55 | 112 | 0.0 | 6.1 | 0.00 | 0.00 | 0.00 | 56 | 1013.6 |
| 20260502033057 | 55 | 131 | 0.9 | 5.2 | 0.00 | 0.00 | 0.00 | 55 | 1013.5 |
| 20260502031556 | 56 | 309 | 0.9 | 5.2 | 0.00 | 0.00 | 0.00 | 54 | 1013.7 |
| 20260502030116 | 56 | 97 | 0.0 | 7.8 | 0.00 | 0.00 | 0.00 | 55 | 1013.8 |
| 20260502024604 | 56 | 147 | 0.0 | 4.3 | 0.00 | 0.00 | 0.00 | 57 | 1013.9 |
| 20260502023127 | 56 | 127 | 0.0 | 5.2 | 0.00 | 0.00 | 0.00 | 57 | 1013.7 |
| 20260502021554 | 57 | 84 | 0.0 | 2.6 | 0.00 | 0.00 | 0.00 | 59 | 1013.6 |
| 20260502020057 | 57 | 132 | 0.0 | 4.3 | 0.00 | 0.00 | 0.00 | 59 | 1013.7 |
| 20260502014604 | 57 | 138 | 0.0 | 2.6 | 0.00 | 0.00 | 0.00 | 63 | 1013.4 |
| 20260502013100 | 58 | 115 | 0.0 | 6.1 | 0.00 | 0.00 | 0.00 | 63 | 1013.3 |
| 20260502011605 | 59 | 290 | 0.0 | 3.5 | 0.00 | 0.00 | 0.00 | 64 | 1013.1 |
| 20260502010052 | 59 | 150 | 0.0 | 3.5 | 0.00 | 0.00 | 0.00 | 64 | 1012.7 |
| 20260502004553 | 60 | 91 | 0.0 | 6.1 | 0.00 | 0.00 | 0.00 | 64 | 1012.5 |
| 20260502003051 | 60 | 129 | 0.0 | 5.2 | 0.00 | 0.00 | 0.00 | 63 | 1011.8 |
| 20260502001558 | 61 | 123 | 0.0 | 1.7 | 0.00 | 0.00 | 0.00 | 61 | 1011.7 |
| 20260502000100 | 62 | 130 | 0.0 | 0.0 | 0.00 | 0.00 | 0.00 | 57 | 1011.8 |
| 20260501234550 | 63 | 129 | 0.0 | 0.0 | 0.00 | 0.00 | 0.00 | 56 | 1011.6 |
| 20260501233104 | 64 | 130 | 0.0 | 0.0 | 0.00 | 0.00 | 0.00 | 56 | 1011.4 |
| 20260501231607 | 65 | 122 | 0.0 | 0.0 | 0.00 | 0.00 | 0.00 | 53 | 1010.9 |
| 20260501230116 | 65 | 148 | 0.0 | 0.0 | 0.00 | 0.00 | 0.00 | 51 | 1010.8 |
| 20260501224556 | 66 | 143 | 0.0 | 0.0 | 0.00 | 0.00 | 0.00 | 52 | 1010.8 |
| 20260501223053 | 66 | 115 | 0.0 | 3.5 | 0.00 | 0.00 | 0.00 | 46 | 1010.9 |
| 20260501221551 | 67 | 39 | 0.0 | 2.6 | 0.00 | 0.00 | 0.00 | 48 | 1010.7 |
| 20260501220043 | 67 | 238 | 0.0 | 4.3 | 0.00 | 0.00 | 0.00 | 45 | 1011.1 |
| 20260501214543 | 68 | 306 | 0.0 | 2.6 | 0.00 | 0.00 | 0.00 | 45 | 1011.3 |
| 20260501213040 | 68 | 35 | 1.7 | 6.1 | 0.00 | 0.00 | 0.00 | 43 | 1011.4 |
| 20260501211539 | 69 | 69 | 0.0 | 2.6 | 0.00 | 0.00 | 0.00 | 43 | 1011.4 |
| 20260501210039 | 69 | 29 | 0.9 | 7.0 | 0.00 | 0.00 | 0.00 | 41 | 1011.4 |
| 20260501204542 | 70 | 113 | 1.7 | 7.8 | 0.00 | 0.00 | 0.00 | 43 | 1011.4 |
| 20260501203035 | 70 | 125 | 0.0 | 2.6 | 0.00 | 0.00 | 0.00 | 39 | 1011.4 |
| 20260501201532 | 71 | 129 | 0.0 | 5.2 | 0.00 | 0.00 | 0.00 | 40 | 1011.7 |
| 20260501200031 | 71 | 62 | 0.9 | 5.2 | 0.00 | 0.00 | 0.00 | 41 | 1011.9 |
| 20260501194528 | 71 | 92 | 0.0 | 2.6 | 0.00 | 0.00 | 0.00 | 46 | 1012.0 |
| 20260501193031 | 71 | 170 | 0.0 | 0.0 | 0.00 | 0.00 | 0.00 | 45 | 1012.0 |
| 20260501191522 | 70 | 250 | 0.0 | 1.7 | 0.00 | 0.00 | 0.00 | 47 | 1012.2 |